Hourly Data Report for January 17, 2022

MIRAMICHI RCS
NEW BRUNSWICK
Current Station Operator: ECCC - MSC

47°00'34.000" N
65°27'54.000" W
33.00 m
8100989
71744
ACQ

Download Data

Hourly Data (January 2022)
Hourly Data Report for January 17, 2022
TIME
LST
Temp Definition
°C
Dew Point Definition
°C
Rel Hum Definition
%
Precip. Amount Definition
mm

Wind Dir Definition
10's deg

Wind Spd Definition
km/h
Visibility Definition
km
Stn Press Definition
kPa
Hmdx Definition


Wind Chill Definition


Weather Definition


00:00 -15.5 -20.9 63 0.0 24 11   102.03   -22 LegendNANA
01:00 -16.9 -20.9 71 0.0 21 4   101.89   -20 LegendNANA
02:00 -17.8 -21.1 76 0.0 26 7   101.90   -23 LegendNANA
03:00 -20.0 -22.6 80 0.0 26 4   101.90   -23 LegendNANA
04:00 -20.1 -22.6 80 0.0 0 1   101.87   -21 LegendNANA
05:00 -21.1 -23.2 83 0.0   0   101.75     LegendNANA
06:00 -19.7 -22.1 81 0.0 0 1   101.67   -21 LegendNANA
07:00 -20.2 -22.8 80 0.0 28 2   101.65   -22 LegendNANA
08:00 -19.1 -21.7 80 0.0   0   101.55     LegendNANA
09:00 -17.5 -20.3 79 0.0 0 1   101.50   -18 LegendNANA
10:00 -15.6 -20.1 68 0.0 4 5   101.40   -19 LegendNANA
11:00 -13.9 -17.7 72 0.0 4 5   101.26   -17 LegendNANA
12:00 -11.1 -14.6 76 0.0 3 9   100.99   -16 LegendNANA
13:00 -8.0 -11.5 76 0.0 6 12   100.66   -13 LegendNANA
14:00 -5.2 -8.3 79 0.0 8 23   100.34   -12 LegendNANA
15:00 -4.8 -6.4 89 0.0 9 27   100.03   -12 LegendNANA
16:00 -3.7 -4.9 91 0.3 9 30   99.72   -11 LegendNANA
17:00 -3.1 -3.8 95 2.3 8 36   99.31   -11 LegendNANA
18:00 -1.8 -2.5 95 3.0 9 30   99.05   -9 LegendNANA
19:00 -0.2 -1.1 94 0.7 10 26   98.83   -6 LegendNANA
20:00 0.4 -0.3 95 0.8 10 18   98.61     LegendNANA
21:00 0.9 0.3 96 0.2 10 16   98.29     LegendNANA
22:00 1.8 1.3 96 0.0 13 17   98.11     LegendNANA
23:00 3.4 2.9 96 0.2 16 18   98.05     LegendNANA

Notes on Data Quality.

Legend

  • E = Estimated
  • M = Missing
  • NA = Not Available*
  • [empty] = Indicates an unobserved value
Date modified: